Year,Month,Day,Hour,Minute,Value (Times are PST for temperature in C)
2015,07,07,00,00,18.00
2015,07,07,00,01,18.00
2015,07,07,00,02,18.10
2015,07,07,00,03,18.10
2015,07,07,00,04,18.20
2015,07,07,00,05,18.20
2015,07,07,00,06,18.20
2015,07,07,00,07,18.20
2015,07,07,00,08,18.30
2015,07,07,00,09,18.30
2015,07,07,00,10,18.30
2015,07,07,00,11,18.20
2015,07,07,00,12,18.20
2015,07,07,00,13,18.10
2015,07,07,00,14,18.10
2015,07,07,00,15,18.10
2015,07,07,00,16,18.00
2015,07,07,00,17,18.00
2015,07,07,00,18,18.00
2015,07,07,00,19,18.10
2015,07,07,00,20,18.10
2015,07,07,00,21,18.20
2015,07,07,00,22,18.30
2015,07,07,00,23,18.30
2015,07,07,00,24,18.30
2015,07,07,00,25,18.30
2015,07,07,00,26,18.30
2015,07,07,00,27,18.30
2015,07,07,00,28,18.30
2015,07,07,00,29,18.40
2015,07,07,00,30,18.40
2015,07,07,00,31,18.40
2015,07,07,00,32,18.50
2015,07,07,00,33,18.50
2015,07,07,00,34,18.60
2015,07,07,00,35,18.60
2015,07,07,00,36,18.60
2015,07,07,00,37,18.60
2015,07,07,00,38,18.60
2015,07,07,00,39,18.60
2015,07,07,00,40,18.60
2015,07,07,00,41,18.70
2015,07,07,00,42,18.70
2015,07,07,00,43,18.70
2015,07,07,00,44,18.60
2015,07,07,00,45,18.60
2015,07,07,00,46,18.60
2015,07,07,00,47,18.60
2015,07,07,00,48,18.60
2015,07,07,00,49,18.60
2015,07,07,00,50,18.60
2015,07,07,00,51,18.60
2015,07,07,00,52,18.60
2015,07,07,00,53,18.60
2015,07,07,00,54,18.60
2015,07,07,00,55,18.60
2015,07,07,00,56,18.60
2015,07,07,00,57,18.70
2015,07,07,00,58,18.70
2015,07,07,00,59,18.70
2015,07,07,01,00,18.80
2015,07,07,01,01,18.80
2015,07,07,01,02,18.90
2015,07,07,01,03,18.90
2015,07,07,01,04,19.00
2015,07,07,01,05,19.00
2015,07,07,01,06,19.10
2015,07,07,01,07,19.10
2015,07,07,01,08,19.10
2015,07,07,01,09,19.10
2015,07,07,01,10,19.10
2015,07,07,01,11,19.10
2015,07,07,01,12,19.10
2015,07,07,01,13,19.10
2015,07,07,01,14,19.10
2015,07,07,01,15,19.10
2015,07,07,01,16,19.10
2015,07,07,01,17,19.10
2015,07,07,01,18,19.10
2015,07,07,01,19,19.00
2015,07,07,01,20,19.00
2015,07,07,01,21,19.00
2015,07,07,01,22,18.90
2015,07,07,01,23,18.90
2015,07,07,01,24,18.90
2015,07,07,01,25,18.80
2015,07,07,01,26,18.80
2015,07,07,01,27,18.80
2015,07,07,01,28,18.80
2015,07,07,01,29,18.80
2015,07,07,01,30,18.70
2015,07,07,01,31,18.70
2015,07,07,01,32,18.70
2015,07,07,01,33,18.70
2015,07,07,01,34,18.60
2015,07,07,01,35,18.60
2015,07,07,01,36,18.50
2015,07,07,01,37,18.40
2015,07,07,01,38,18.30
2015,07,07,01,39,18.30
2015,07,07,01,40,18.20
2015,07,07,01,41,18.20
2015,07,07,01,42,18.10
2015,07,07,01,43,18.00
2015,07,07,01,44,18.00
2015,07,07,01,45,17.90
2015,07,07,01,46,17.90
2015,07,07,01,47,17.80
2015,07,07,01,48,17.80
2015,07,07,01,49,17.80
2015,07,07,01,50,17.80
2015,07,07,01,51,17.70
2015,07,07,01,52,17.70
2015,07,07,01,53,17.70
2015,07,07,01,54,17.70
2015,07,07,01,55,17.70
2015,07,07,01,56,17.70
2015,07,07,01,57,17.70
2015,07,07,01,58,17.70
2015,07,07,01,59,17.70
2015,07,07,02,00,17.70
2015,07,07,02,01,17.60
2015,07,07,02,02,17.60
2015,07,07,02,03,17.60
2015,07,07,02,04,17.60
2015,07,07,02,05,17.60
2015,07,07,02,06,17.60
2015,07,07,02,07,17.60
2015,07,07,02,08,17.50
2015,07,07,02,09,17.50
2015,07,07,02,10,17.50
2015,07,07,02,11,17.40
2015,07,07,02,12,17.40
2015,07,07,02,13,17.30
2015,07,07,02,14,17.30
2015,07,07,02,15,17.30
2015,07,07,02,16,17.20
2015,07,07,02,17,17.10
2015,07,07,02,18,17.10
2015,07,07,02,19,17.00
2015,07,07,02,20,17.00
2015,07,07,02,21,16.90
2015,07,07,02,22,16.90
2015,07,07,02,23,16.80
2015,07,07,02,24,16.80
2015,07,07,02,25,16.70
2015,07,07,02,26,16.70
2015,07,07,02,27,16.60
2015,07,07,02,28,16.60
2015,07,07,02,29,16.60
2015,07,07,02,30,16.50
2015,07,07,02,31,16.50
2015,07,07,02,32,16.40
2015,07,07,02,33,16.40
2015,07,07,02,34,16.30
2015,07,07,02,35,16.30
2015,07,07,02,36,16.20
2015,07,07,02,37,16.20
2015,07,07,02,38,16.20
2015,07,07,02,39,16.20
2015,07,07,02,40,16.10
2015,07,07,02,41,16.10
2015,07,07,02,42,16.10
2015,07,07,02,43,16.10
2015,07,07,02,44,16.10
2015,07,07,02,45,16.10
2015,07,07,02,46,16.10
2015,07,07,02,47,16.10
2015,07,07,02,48,16.00
2015,07,07,02,49,16.00
2015,07,07,02,50,16.00
2015,07,07,02,51,16.00
2015,07,07,02,52,16.00
2015,07,07,02,53,16.10
2015,07,07,02,54,16.10
2015,07,07,02,55,16.10
2015,07,07,02,56,16.10
2015,07,07,02,57,16.20
2015,07,07,02,58,16.20
2015,07,07,02,59,16.20
2015,07,07,03,00,16.20
2015,07,07,03,01,16.20
2015,07,07,03,02,16.30
2015,07,07,03,03,16.30
2015,07,07,03,04,16.30
2015,07,07,03,05,16.30
2015,07,07,03,06,16.40
2015,07,07,03,07,16.40
2015,07,07,03,08,16.40
2015,07,07,03,09,16.50
2015,07,07,03,10,16.50
2015,07,07,03,11,16.60
2015,07,07,03,12,16.60
2015,07,07,03,13,16.60
2015,07,07,03,14,16.60
2015,07,07,03,15,16.70
2015,07,07,03,16,16.70
2015,07,07,03,17,16.70
2015,07,07,03,18,16.70
2015,07,07,03,19,16.70
2015,07,07,03,20,16.70
2015,07,07,03,21,16.70
2015,07,07,03,22,16.60
2015,07,07,03,23,16.60
2015,07,07,03,24,16.60
2015,07,07,03,25,16.60
2015,07,07,03,26,16.60
2015,07,07,03,27,16.50
2015,07,07,03,28,16.50
2015,07,07,03,29,16.50
2015,07,07,03,30,16.50
2015,07,07,03,31,16.50
2015,07,07,03,32,16.50
2015,07,07,03,33,16.50
2015,07,07,03,34,16.50
2015,07,07,03,35,16.50
2015,07,07,03,36,16.50
2015,07,07,03,37,16.50
2015,07,07,03,38,16.40
2015,07,07,03,39,16.30
2015,07,07,03,40,16.20
2015,07,07,03,41,16.10
2015,07,07,03,42,16.10
2015,07,07,03,43,16.00
2015,07,07,03,44,15.90
2015,07,07,03,45,15.90
2015,07,07,03,46,15.90
2015,07,07,03,47,15.80
2015,07,07,03,48,15.80
2015,07,07,03,49,15.80
2015,07,07,03,50,15.80
2015,07,07,03,51,15.80
2015,07,07,03,52,15.80
2015,07,07,03,53,15.80
2015,07,07,03,54,15.80
2015,07,07,03,55,15.80
2015,07,07,03,56,15.80
2015,07,07,03,57,15.80
2015,07,07,03,58,15.80
2015,07,07,03,59,15.80
2015,07,07,04,00,15.80
2015,07,07,04,01,15.80
2015,07,07,04,02,15.80
2015,07,07,04,03,15.80
2015,07,07,04,04,15.80
2015,07,07,04,05,15.80
2015,07,07,04,06,15.80
2015,07,07,04,07,15.80
2015,07,07,04,08,15.80
2015,07,07,04,09,15.80
2015,07,07,04,10,15.80
2015,07,07,04,11,15.80
2015,07,07,04,12,15.70
2015,07,07,04,13,15.70
2015,07,07,04,14,15.70
2015,07,07,04,15,15.70
2015,07,07,04,16,15.60
2015,07,07,04,17,15.60
2015,07,07,04,18,15.60
2015,07,07,04,19,15.60
2015,07,07,04,20,15.60
2015,07,07,04,21,15.60
2015,07,07,04,22,15.60
2015,07,07,04,23,15.60
2015,07,07,04,24,15.70
2015,07,07,04,25,15.70
2015,07,07,04,26,15.70
2015,07,07,04,27,15.70
2015,07,07,04,28,15.70
2015,07,07,04,29,15.70
2015,07,07,04,30,15.70
2015,07,07,04,31,15.70
2015,07,07,04,32,15.70
2015,07,07,04,33,15.60
2015,07,07,04,34,15.60
2015,07,07,04,35,15.60
2015,07,07,04,36,15.60
2015,07,07,04,37,15.60
2015,07,07,04,38,15.60
2015,07,07,04,39,15.60
2015,07,07,04,40,15.60
2015,07,07,04,41,15.60
2015,07,07,04,42,15.60
2015,07,07,04,43,15.60
2015,07,07,04,44,15.60
2015,07,07,04,45,15.60
2015,07,07,04,46,15.60
2015,07,07,04,47,15.60
2015,07,07,04,48,15.60
2015,07,07,04,49,15.60
2015,07,07,04,50,15.70
2015,07,07,04,51,15.70
2015,07,07,04,52,15.70
2015,07,07,04,53,15.70
2015,07,07,04,54,15.70
2015,07,07,04,55,15.70
2015,07,07,04,56,15.60
2015,07,07,04,57,15.60
2015,07,07,04,58,15.60
2015,07,07,04,59,15.60
2015,07,07,05,00,15.50
2015,07,07,05,01,15.50
2015,07,07,05,02,15.50
2015,07,07,05,03,15.50
2015,07,07,05,04,15.50
2015,07,07,05,05,15.50
2015,07,07,05,06,15.50
2015,07,07,05,07,15.50
2015,07,07,05,08,15.50
2015,07,07,05,09,15.50
2015,07,07,05,10,15.50
2015,07,07,05,11,15.50
2015,07,07,05,12,15.50
2015,07,07,05,13,15.50
2015,07,07,05,14,15.50
2015,07,07,05,15,15.50
2015,07,07,05,16,15.60
2015,07,07,05,17,15.50
2015,07,07,05,18,15.60
2015,07,07,05,19,15.60
2015,07,07,05,20,15.60
2015,07,07,05,21,15.60
2015,07,07,05,22,15.60
2015,07,07,05,23,15.60
2015,07,07,05,24,15.60
2015,07,07,05,25,15.60
2015,07,07,05,26,15.60
2015,07,07,05,27,15.70
2015,07,07,05,28,15.70
2015,07,07,05,29,15.60
2015,07,07,05,30,15.60
2015,07,07,05,31,15.60
2015,07,07,05,32,15.60
2015,07,07,05,33,15.60
2015,07,07,05,34,15.60
2015,07,07,05,35,15.60
2015,07,07,05,36,15.60
2015,07,07,05,37,15.60
2015,07,07,05,38,15.60
2015,07,07,05,39,15.60
2015,07,07,05,40,15.60
2015,07,07,05,41,15.60
2015,07,07,05,42,15.60
2015,07,07,05,43,15.60
2015,07,07,05,44,15.60
2015,07,07,05,45,15.60
2015,07,07,05,46,15.60
2015,07,07,05,47,15.60
2015,07,07,05,48,15.60
2015,07,07,05,49,15.60
2015,07,07,05,50,15.60
2015,07,07,05,51,15.60
2015,07,07,05,52,15.60
2015,07,07,05,53,15.70
2015,07,07,05,54,15.70
2015,07,07,05,55,15.70
2015,07,07,05,56,15.70
2015,07,07,05,57,15.70
2015,07,07,05,58,15.70
2015,07,07,05,59,15.70
2015,07,07,06,00,15.70
2015,07,07,06,01,15.60
2015,07,07,06,02,15.60
2015,07,07,06,03,15.60
2015,07,07,06,04,15.60
2015,07,07,06,05,15.50
2015,07,07,06,06,15.50
2015,07,07,06,07,15.40
2015,07,07,06,08,15.40
2015,07,07,06,09,15.40
2015,07,07,06,10,15.40
2015,07,07,06,11,15.40
2015,07,07,06,12,15.40
2015,07,07,06,13,15.30
2015,07,07,06,14,15.40
2015,07,07,06,15,15.40
2015,07,07,06,16,15.40
2015,07,07,06,17,15.40
2015,07,07,06,18,15.50
2015,07,07,06,19,15.50
2015,07,07,06,20,15.60
2015,07,07,06,21,15.60
2015,07,07,06,22,15.60
2015,07,07,06,23,15.60
2015,07,07,06,24,15.60
2015,07,07,06,25,15.60
2015,07,07,06,26,15.60
2015,07,07,06,27,15.60
2015,07,07,06,28,15.60
2015,07,07,06,29,15.60
2015,07,07,06,30,15.60
2015,07,07,06,31,15.60
2015,07,07,06,32,15.60
2015,07,07,06,33,15.60
2015,07,07,06,34,15.60
2015,07,07,06,35,15.70
2015,07,07,06,36,15.70
2015,07,07,06,37,15.70
2015,07,07,06,38,15.70
2015,07,07,06,39,15.70
2015,07,07,06,40,15.70
2015,07,07,06,41,15.70
2015,07,07,06,42,15.60
2015,07,07,06,43,15.60
2015,07,07,06,44,15.50
2015,07,07,06,45,15.50
2015,07,07,06,46,15.50
2015,07,07,06,47,15.50
2015,07,07,06,48,15.50
2015,07,07,06,49,15.50
2015,07,07,06,50,15.50
2015,07,07,06,51,15.50
2015,07,07,06,52,15.50
2015,07,07,06,53,15.60
2015,07,07,06,54,15.60
2015,07,07,06,55,15.60
2015,07,07,06,56,15.70
2015,07,07,06,57,15.70
2015,07,07,06,58,15.70
2015,07,07,06,59,15.80
2015,07,07,07,00,15.80
2015,07,07,07,01,15.80
2015,07,07,07,02,15.90
2015,07,07,07,03,15.90
2015,07,07,07,04,15.90
2015,07,07,07,05,15.90
2015,07,07,07,06,15.90
2015,07,07,07,07,15.90
2015,07,07,07,08,16.00
2015,07,07,07,09,16.00
2015,07,07,07,10,16.00
2015,07,07,07,11,16.00
2015,07,07,07,12,16.00
2015,07,07,07,13,16.00
2015,07,07,07,14,16.10
2015,07,07,07,15,16.10
2015,07,07,07,16,16.10
2015,07,07,07,17,16.10
2015,07,07,07,18,16.10
2015,07,07,07,19,16.10
2015,07,07,07,20,16.10
2015,07,07,07,21,16.10
2015,07,07,07,22,16.10
2015,07,07,07,23,16.10
2015,07,07,07,24,16.20
2015,07,07,07,25,16.20
2015,07,07,07,26,16.20
2015,07,07,07,27,16.20
2015,07,07,07,28,16.20
2015,07,07,07,29,16.20
2015,07,07,07,30,16.20
2015,07,07,07,31,16.20
2015,07,07,07,32,16.30
2015,07,07,07,33,16.30
2015,07,07,07,34,16.30
2015,07,07,07,35,16.30
2015,07,07,07,36,16.30
2015,07,07,07,37,16.30
2015,07,07,07,38,16.40
2015,07,07,07,39,16.40
2015,07,07,07,40,16.40
2015,07,07,07,41,16.50
2015,07,07,07,42,16.50
2015,07,07,07,43,16.60
2015,07,07,07,44,16.60
2015,07,07,07,45,16.60
2015,07,07,07,46,16.60
2015,07,07,07,47,16.70
2015,07,07,07,48,16.70
2015,07,07,07,49,16.70
2015,07,07,07,50,16.70
2015,07,07,07,51,16.80
2015,07,07,07,52,16.80
2015,07,07,07,53,16.80
2015,07,07,07,54,16.80
2015,07,07,07,55,16.80
2015,07,07,07,56,16.90
2015,07,07,07,57,16.90
2015,07,07,07,58,16.90
2015,07,07,07,59,16.90
2015,07,07,08,00,17.00
2015,07,07,08,01,17.00
2015,07,07,08,02,17.00
2015,07,07,08,03,17.10
2015,07,07,08,04,17.10
2015,07,07,08,05,17.20
2015,07,07,08,06,17.20
2015,07,07,08,07,17.30
2015,07,07,08,08,17.30
2015,07,07,08,09,17.30
2015,07,07,08,10,17.30
2015,07,07,08,11,17.30
2015,07,07,08,12,17.30
2015,07,07,08,13,17.30
2015,07,07,08,14,17.30
2015,07,07,08,15,17.30
2015,07,07,08,16,17.40
2015,07,07,08,17,17.40
2015,07,07,08,18,17.40
2015,07,07,08,19,17.40
2015,07,07,08,20,17.40
2015,07,07,08,21,17.50
2015,07,07,08,22,17.50
2015,07,07,08,23,17.50
2015,07,07,08,24,17.50
2015,07,07,08,25,17.50
2015,07,07,08,26,17.50
2015,07,07,08,27,17.50
2015,07,07,08,28,17.50
2015,07,07,08,29,17.60
2015,07,07,08,30,17.60
2015,07,07,08,31,17.60
2015,07,07,08,32,17.60
2015,07,07,08,33,17.70
2015,07,07,08,34,17.70
2015,07,07,08,35,17.70
2015,07,07,08,36,17.70
2015,07,07,08,37,17.70
2015,07,07,08,38,17.70
2015,07,07,08,39,17.70
2015,07,07,08,40,17.70
2015,07,07,08,41,17.70
2015,07,07,08,42,17.80
2015,07,07,08,43,17.80
2015,07,07,08,44,17.80
2015,07,07,08,45,17.80
2015,07,07,08,46,17.80
2015,07,07,08,47,17.80
2015,07,07,08,48,17.80
2015,07,07,08,49,17.80
2015,07,07,08,50,17.80
2015,07,07,08,51,17.80
2015,07,07,08,52,17.80
2015,07,07,08,53,17.80
2015,07,07,08,54,17.80
2015,07,07,08,55,17.80
2015,07,07,08,56,17.80
2015,07,07,08,57,17.80
2015,07,07,08,58,17.80
2015,07,07,08,59,17.80
2015,07,07,09,00,17.90
2015,07,07,09,01,17.90
2015,07,07,09,02,18.00
2015,07,07,09,03,18.00
2015,07,07,09,04,18.10
2015,07,07,09,05,18.10
2015,07,07,09,06,18.10
2015,07,07,09,07,18.10
2015,07,07,09,08,18.10
2015,07,07,09,09,18.10
2015,07,07,09,10,18.10
2015,07,07,09,11,18.10
2015,07,07,09,12,18.10
2015,07,07,09,13,18.20
2015,07,07,09,14,18.20
2015,07,07,09,15,18.20
2015,07,07,09,16,18.30
2015,07,07,09,17,18.30
2015,07,07,09,18,18.30
2015,07,07,09,19,18.30
2015,07,07,09,20,18.30
2015,07,07,09,21,18.40
2015,07,07,09,22,18.50
2015,07,07,09,23,18.50
2015,07,07,09,24,18.60
2015,07,07,09,25,18.60
2015,07,07,09,26,18.70
2015,07,07,09,27,18.70
2015,07,07,09,28,18.80
2015,07,07,09,29,18.80
2015,07,07,09,30,18.90
2015,07,07,09,31,18.90
2015,07,07,09,32,19.00
2015,07,07,09,33,19.10
2015,07,07,09,34,19.10
2015,07,07,09,35,19.10
2015,07,07,09,36,19.20
2015,07,07,09,37,19.20
2015,07,07,09,38,19.20
2015,07,07,09,39,19.20
2015,07,07,09,40,19.20
2015,07,07,09,41,19.20
2015,07,07,09,42,19.20
2015,07,07,09,43,19.20
2015,07,07,09,44,19.20
2015,07,07,09,45,19.20
2015,07,07,09,46,19.20
2015,07,07,09,47,19.20
2015,07,07,09,48,19.20
2015,07,07,09,49,19.20
2015,07,07,09,50,19.20
2015,07,07,09,51,19.20
2015,07,07,09,52,19.20
2015,07,07,09,53,19.20
2015,07,07,09,54,19.30
2015,07,07,09,55,19.30
2015,07,07,09,56,19.40
2015,07,07,09,57,19.50
2015,07,07,09,58,19.60
2015,07,07,09,59,19.60
2015,07,07,10,00,19.70
2015,07,07,10,01,19.70
2015,07,07,10,02,19.80
2015,07,07,10,03,19.80
2015,07,07,10,04,19.90
2015,07,07,10,05,20.00
2015,07,07,10,06,20.10
2015,07,07,10,07,20.20
2015,07,07,10,08,20.20
2015,07,07,10,09,20.30
2015,07,07,10,10,20.30
2015,07,07,10,11,20.30
2015,07,07,10,12,20.30
2015,07,07,10,13,20.40
2015,07,07,10,14,20.50
2015,07,07,10,15,20.60
2015,07,07,10,16,20.60
2015,07,07,10,17,20.70
2015,07,07,10,18,20.80
2015,07,07,10,19,20.80
2015,07,07,10,20,20.80
2015,07,07,10,21,20.80
2015,07,07,10,22,20.80
2015,07,07,10,23,20.80
2015,07,07,10,24,20.90
2015,07,07,10,25,20.90
2015,07,07,10,26,21.00
2015,07,07,10,27,21.10
2015,07,07,10,28,21.10
2015,07,07,10,29,21.20
2015,07,07,10,30,21.30
2015,07,07,10,31,21.40
2015,07,07,10,32,21.50
2015,07,07,10,33,21.60
2015,07,07,10,34,21.70
2015,07,07,10,35,21.80
2015,07,07,10,36,21.80
2015,07,07,10,37,21.80
2015,07,07,10,38,21.80
2015,07,07,10,39,21.90
2015,07,07,10,40,21.90
2015,07,07,10,41,21.90
2015,07,07,10,42,21.80
2015,07,07,10,43,21.60
2015,07,07,10,44,21.50
2015,07,07,10,45,21.40
2015,07,07,10,46,21.30
2015,07,07,10,47,21.10
2015,07,07,10,48,21.00
2015,07,07,10,49,20.80
2015,07,07,10,50,20.70
2015,07,07,10,51,20.60
2015,07,07,10,52,20.60
2015,07,07,10,53,20.50
2015,07,07,10,54,20.50
2015,07,07,10,55,20.60
2015,07,07,10,56,20.60
2015,07,07,10,57,20.70
2015,07,07,10,58,20.80
2015,07,07,10,59,20.90
2015,07,07,11,00,20.90
2015,07,07,11,01,21.00
2015,07,07,11,02,21.10
2015,07,07,11,03,21.20
2015,07,07,11,04,21.30
2015,07,07,11,05,21.40
2015,07,07,11,06,21.50
2015,07,07,11,07,21.50
2015,07,07,11,08,21.60
2015,07,07,11,09,21.70
2015,07,07,11,10,21.80
2015,07,07,11,11,21.80
2015,07,07,11,12,21.80
2015,07,07,11,13,21.90
2015,07,07,11,14,21.90
2015,07,07,11,15,21.90
2015,07,07,11,16,21.90
2015,07,07,11,17,21.90
2015,07,07,11,18,21.90
2015,07,07,11,19,21.80
2015,07,07,11,20,21.80
2015,07,07,11,21,21.80
2015,07,07,11,22,21.80
2015,07,07,11,23,21.80
2015,07,07,11,24,21.80
2015,07,07,11,25,21.70
2015,07,07,11,26,21.60
2015,07,07,11,27,21.60
2015,07,07,11,28,21.50
2015,07,07,11,29,21.50
2015,07,07,11,30,21.40
2015,07,07,11,31,21.40
2015,07,07,11,32,21.40
2015,07,07,11,33,21.40
2015,07,07,11,34,21.40
2015,07,07,11,35,21.40
2015,07,07,11,36,21.40
2015,07,07,11,37,21.40
2015,07,07,11,38,21.50
2015,07,07,11,39,21.50
2015,07,07,11,40,21.60
2015,07,07,11,41,21.60
2015,07,07,11,42,21.50
2015,07,07,11,43,21.50
2015,07,07,11,44,21.50
2015,07,07,11,45,21.50
2015,07,07,11,46,21.50
2015,07,07,11,47,21.50
2015,07,07,11,48,21.40
2015,07,07,11,49,21.30
2015,07,07,11,50,21.20
2015,07,07,11,51,21.20
2015,07,07,11,52,21.10
2015,07,07,11,53,21.10
2015,07,07,11,54,21.20
2015,07,07,11,55,21.20
2015,07,07,11,56,21.20
2015,07,07,11,57,21.20
2015,07,07,11,58,21.20
2015,07,07,11,59,21.20
2015,07,07,12,00,21.30
2015,07,07,12,01,21.30
2015,07,07,12,02,21.30
2015,07,07,12,03,21.20
2015,07,07,12,04,21.20
2015,07,07,12,05,21.20
2015,07,07,12,06,21.10
2015,07,07,12,07,21.10
2015,07,07,12,08,21.10
2015,07,07,12,09,21.20
2015,07,07,12,10,21.20
2015,07,07,12,11,21.20
2015,07,07,12,12,21.10
2015,07,07,12,13,21.10
2015,07,07,12,14,21.10
2015,07,07,12,15,21.20
2015,07,07,12,16,21.20
2015,07,07,12,17,21.20
2015,07,07,12,18,21.20
2015,07,07,12,19,21.20
2015,07,07,12,20,21.30
2015,07,07,12,21,21.30
2015,07,07,12,22,21.30
2015,07,07,12,23,21.30
2015,07,07,12,24,21.40
2015,07,07,12,25,21.40
2015,07,07,12,26,21.50
2015,07,07,12,27,21.60
2015,07,07,12,28,21.70
2015,07,07,12,29,21.70
2015,07,07,12,30,21.80
2015,07,07,12,31,21.90
2015,07,07,12,32,21.90
2015,07,07,12,33,21.90
2015,07,07,12,34,21.80
2015,07,07,12,35,21.80
2015,07,07,12,36,21.80
2015,07,07,12,37,21.80
2015,07,07,12,38,21.80
2015,07,07,12,39,21.70
2015,07,07,12,40,21.70
2015,07,07,12,41,21.80
2015,07,07,12,42,21.80
2015,07,07,12,43,21.80
2015,07,07,12,44,21.80
2015,07,07,12,45,21.80
2015,07,07,12,46,21.70
2015,07,07,12,47,21.70
2015,07,07,12,48,21.70
2015,07,07,12,49,21.70
2015,07,07,12,50,21.70
2015,07,07,12,51,21.80
2015,07,07,12,52,21.80
2015,07,07,12,53,21.80
2015,07,07,12,54,21.80
2015,07,07,12,55,21.80
2015,07,07,12,56,21.80
2015,07,07,12,57,21.80
2015,07,07,12,58,21.80
2015,07,07,12,59,21.80
2015,07,07,13,00,21.80
2015,07,07,13,01,21.90
2015,07,07,13,02,21.80
2015,07,07,13,03,21.80
2015,07,07,13,04,21.80
2015,07,07,13,05,21.90
2015,07,07,13,06,21.90
2015,07,07,13,07,21.90
2015,07,07,13,08,21.90
2015,07,07,13,09,21.90
2015,07,07,13,10,21.90
2015,07,07,13,11,22.00
2015,07,07,13,12,22.00
2015,07,07,13,13,22.00
2015,07,07,13,14,22.00
2015,07,07,13,15,22.10
2015,07,07,13,16,22.10
2015,07,07,13,17,22.20
2015,07,07,13,18,22.20
2015,07,07,13,19,22.30
2015,07,07,13,20,22.40
2015,07,07,13,21,22.50
2015,07,07,13,22,22.60
2015,07,07,13,23,22.70
2015,07,07,13,24,22.80
2015,07,07,13,25,22.90
2015,07,07,13,26,22.90
2015,07,07,13,27,23.00
2015,07,07,13,28,23.00
2015,07,07,13,29,23.10
2015,07,07,13,30,23.10
2015,07,07,13,31,23.10
2015,07,07,13,32,23.10
2015,07,07,13,33,23.10
2015,07,07,13,34,23.00
2015,07,07,13,35,22.90
2015,07,07,13,36,22.80
2015,07,07,13,37,22.70
2015,07,07,13,38,22.70
2015,07,07,13,39,22.70
2015,07,07,13,40,22.60
2015,07,07,13,41,22.60
2015,07,07,13,42,22.60
2015,07,07,13,43,22.60
2015,07,07,13,44,22.50
2015,07,07,13,45,22.40
2015,07,07,13,46,22.30
2015,07,07,13,47,22.30
2015,07,07,13,48,22.20
2015,07,07,13,49,22.20
2015,07,07,13,50,22.10
2015,07,07,13,51,22.00
2015,07,07,13,52,22.00
2015,07,07,13,53,22.00
2015,07,07,13,54,21.90
2015,07,07,13,55,21.90
2015,07,07,13,56,21.90
2015,07,07,13,57,21.80
2015,07,07,13,58,21.80
2015,07,07,13,59,21.80
2015,07,07,14,00,21.70
2015,07,07,14,01,21.70
2015,07,07,14,02,21.70
2015,07,07,14,03,21.70
2015,07,07,14,04,21.70
2015,07,07,14,05,21.70
2015,07,07,14,06,21.70
2015,07,07,14,07,21.80
2015,07,07,14,08,21.70
2015,07,07,14,09,21.70
2015,07,07,14,10,21.70
2015,07,07,14,11,21.60
2015,07,07,14,12,21.60
2015,07,07,14,13,21.60
2015,07,07,14,14,21.60
2015,07,07,14,15,21.60
2015,07,07,14,16,21.70
2015,07,07,14,17,21.70
2015,07,07,14,18,21.70
2015,07,07,14,19,21.70
2015,07,07,14,20,21.70
2015,07,07,14,21,21.70
2015,07,07,14,22,21.70
2015,07,07,14,23,21.70
2015,07,07,14,24,21.70
2015,07,07,14,25,21.80
2015,07,07,14,26,21.80
2015,07,07,14,27,21.80
2015,07,07,14,28,21.80
2015,07,07,14,29,21.80
2015,07,07,14,30,21.90
2015,07,07,14,31,21.90
2015,07,07,14,32,21.90
2015,07,07,14,33,22.00
2015,07,07,14,34,22.10
2015,07,07,14,35,22.20
2015,07,07,14,36,22.30
2015,07,07,14,37,22.40
2015,07,07,14,38,22.50
2015,07,07,14,39,22.50
2015,07,07,14,40,22.60
2015,07,07,14,41,22.60
2015,07,07,14,42,22.60
2015,07,07,14,43,22.60
2015,07,07,14,44,22.60
2015,07,07,14,45,22.50
2015,07,07,14,46,22.50
2015,07,07,14,47,22.50
2015,07,07,14,48,22.50
2015,07,07,14,49,22.50
2015,07,07,14,50,22.50
2015,07,07,14,51,22.60
2015,07,07,14,52,22.60
2015,07,07,14,53,22.60
2015,07,07,14,54,22.60
2015,07,07,14,55,22.60
2015,07,07,14,56,22.60
2015,07,07,14,57,22.60
2015,07,07,14,58,22.70
2015,07,07,14,59,22.70
2015,07,07,15,00,22.80
2015,07,07,15,01,22.80
2015,07,07,15,02,22.80
2015,07,07,15,03,22.90
2015,07,07,15,04,22.90
2015,07,07,15,05,23.00
2015,07,07,15,06,23.10
2015,07,07,15,07,23.10
2015,07,07,15,08,23.00
2015,07,07,15,09,23.00
2015,07,07,15,10,22.90
2015,07,07,15,11,22.90
2015,07,07,15,12,22.90
2015,07,07,15,13,22.90
2015,07,07,15,14,23.00
2015,07,07,15,15,23.10
2015,07,07,15,16,23.10
2015,07,07,15,17,23.20
2015,07,07,15,18,23.30
2015,07,07,15,19,23.30
2015,07,07,15,20,23.30
2015,07,07,15,21,23.30
2015,07,07,15,22,23.40
2015,07,07,15,23,23.40
2015,07,07,15,24,23.40
2015,07,07,15,25,23.40
2015,07,07,15,26,23.40
2015,07,07,15,27,23.40
2015,07,07,15,28,23.40
2015,07,07,15,29,23.40
2015,07,07,15,30,23.40
2015,07,07,15,31,23.40
2015,07,07,15,32,23.40
2015,07,07,15,33,23.50
2015,07,07,15,34,23.40
2015,07,07,15,35,23.40
2015,07,07,15,36,23.40
2015,07,07,15,37,23.30
2015,07,07,15,38,23.30
2015,07,07,15,39,23.20
2015,07,07,15,40,23.20
2015,07,07,15,41,23.20
2015,07,07,15,42,23.20
2015,07,07,15,43,23.30
2015,07,07,15,44,23.30
2015,07,07,15,45,23.30
2015,07,07,15,46,23.30
2015,07,07,15,47,23.40
2015,07,07,15,48,23.50
2015,07,07,15,49,23.50
2015,07,07,15,50,23.60
2015,07,07,15,51,23.60
2015,07,07,15,52,23.70
2015,07,07,15,53,23.70
2015,07,07,15,54,23.80
2015,07,07,15,55,23.80
2015,07,07,15,56,23.80
2015,07,07,15,57,23.80
2015,07,07,15,58,23.80
2015,07,07,15,59,23.80
2015,07,07,16,00,23.80
2015,07,07,16,01,23.80
2015,07,07,16,02,23.80
2015,07,07,16,03,23.80
2015,07,07,16,04,23.90
2015,07,07,16,05,23.90
2015,07,07,16,06,23.90
2015,07,07,16,07,23.80
2015,07,07,16,08,23.80
2015,07,07,16,09,23.80
2015,07,07,16,10,23.80
2015,07,07,16,11,23.80
2015,07,07,16,12,23.70
2015,07,07,16,13,23.70
2015,07,07,16,14,23.70
2015,07,07,16,15,23.70
2015,07,07,16,16,23.60
2015,07,07,16,17,23.60
2015,07,07,16,18,23.60
2015,07,07,16,19,23.60
2015,07,07,16,20,23.60
2015,07,07,16,21,23.50
2015,07,07,16,22,23.50
2015,07,07,16,23,23.50
2015,07,07,16,24,23.50
2015,07,07,16,25,23.60
2015,07,07,16,26,23.60
2015,07,07,16,27,23.70
2015,07,07,16,28,23.70
2015,07,07,16,29,23.70
2015,07,07,16,30,23.80
2015,07,07,16,31,23.80
2015,07,07,16,32,23.80
2015,07,07,16,33,23.80
2015,07,07,16,34,23.80
2015,07,07,16,35,23.80
2015,07,07,16,36,23.80
2015,07,07,16,37,23.80
2015,07,07,16,38,23.80
2015,07,07,16,39,23.80
2015,07,07,16,40,23.80
2015,07,07,16,41,23.80
2015,07,07,16,42,23.70
2015,07,07,16,43,23.70
2015,07,07,16,44,23.80
2015,07,07,16,45,23.70
2015,07,07,16,46,23.70
2015,07,07,16,47,23.70
2015,07,07,16,48,23.70
2015,07,07,16,49,23.70
2015,07,07,16,50,23.70
2015,07,07,16,51,23.70
2015,07,07,16,52,23.70
2015,07,07,16,53,23.70
2015,07,07,16,54,23.70
2015,07,07,16,55,23.80
2015,07,07,16,56,23.90
2015,07,07,16,57,24.00
2015,07,07,16,58,24.10
2015,07,07,16,59,24.20
2015,07,07,17,00,24.20
2015,07,07,17,01,24.30
2015,07,07,17,02,24.30
2015,07,07,17,03,24.30
2015,07,07,17,04,24.40
2015,07,07,17,05,24.40
2015,07,07,17,06,24.50
2015,07,07,17,07,24.50
2015,07,07,17,08,24.60
2015,07,07,17,09,24.70
2015,07,07,17,10,24.70
2015,07,07,17,11,24.70
2015,07,07,17,12,24.70
2015,07,07,17,13,24.60
2015,07,07,17,14,24.60
2015,07,07,17,15,24.60
2015,07,07,17,16,24.70
2015,07,07,17,17,24.80
2015,07,07,17,18,24.80
2015,07,07,17,19,24.80